"Time","Value","Approval","myLocation"
"2023-04-20 00:00",23.3871170840932,"Approved","OW496"
"2023-04-20 01:00",23.3868366487028,"Approved","OW496"
"2023-04-20 02:00",23.3871562133125,"Approved","OW496"
"2023-04-20 03:00",23.3873757779221,"Approved","OW496"
"2023-04-20 04:00",23.3879953425317,"Approved","OW496"
"2023-04-20 05:00",23.3885149071413,"Approved","OW496"
"2023-04-20 06:00",23.3886344717509,"Approved","OW496"
"2023-04-20 07:00",23.3877540363606,"Approved","OW496"
"2023-04-20 08:00",23.3893736009702,"Approved","OW496"
"2023-04-20 09:00",23.3921931655798,"Approved","OW496"
"2023-04-20 10:00",23.3939127301894,"Approved","OW496"
"2023-04-20 11:00",23.394832294799,"Approved","OW496"
"2023-04-20 12:00",23.3960518594087,"Approved","OW496"
"2023-04-20 13:00",23.3930714240183,"Approved","OW496"
"2023-04-20 14:00",23.3918909886279,"Approved","OW496"
"2023-04-20 15:00",23.3876105532375,"Approved","OW496"
"2023-04-20 16:00",23.3826301178471,"Approved","OW496"
"2023-04-20 17:00",23.3791496824568,"Approved","OW496"
"2023-04-20 18:00",23.3757692470664,"Approved","OW496"
"2023-04-20 19:00",23.373488811676,"Approved","OW496"
"2023-04-20 20:00",23.3702083762856,"Approved","OW496"
"2023-04-20 21:00",23.3671279408952,"Approved","OW496"
"2023-04-20 22:00",23.3650475055049,"Approved","OW496"
"2023-04-20 23:00",23.3640670701145,"Approved","OW496"
"2023-04-21 00:00",23.3631866347241,"Approved","OW496"
"2023-04-21 01:00",23.3620061993337,"Approved","OW496"
"2023-04-21 02:00",23.3607257639433,"Approved","OW496"
"2023-04-21 03:00",23.357845328553,"Approved","OW496"
"2023-04-21 04:00",23.3561648931626,"Approved","OW496"
"2023-04-21 05:00",23.3561844577722,"Approved","OW496"
"2023-04-21 06:00",23.3551040223818,"Approved","OW496"
"2023-04-21 07:00",23.3541235869914,"Approved","OW496"
"2023-04-21 08:00",23.3543431516011,"Approved","OW496"
"2023-04-21 09:00",23.3566627162107,"Approved","OW496"
"2023-04-21 10:00",23.3558822808203,"Approved","OW496"
"2023-04-21 11:00",23.3544018454299,"Approved","OW496"
"2023-04-21 12:00",23.3494214100395,"Approved","OW496"
"2023-04-21 13:00",23.3467409746492,"Approved","OW496"
"2023-04-21 14:00",23.3424605392588,"Approved","OW496"
"2023-04-21 15:00",23.3370801038684,"Approved","OW496"
"2023-04-21 16:00",23.331399668478,"Approved","OW496"
"2023-04-21 17:00",23.3249192330876,"Approved","OW496"
"2023-04-21 18:00",23.3182387976973,"Approved","OW496"
"2023-04-21 19:00",23.3116583623069,"Approved","OW496"
"2023-04-21 20:00",23.3036779269165,"Approved","OW496"
"2023-04-21 21:00",23.2960974915261,"Approved","OW496"
"2023-04-21 22:00",23.2908170561357,"Approved","OW496"
"2023-04-21 23:00",23.2850366207454,"Approved","OW496"
"2023-04-22 00:00",23.279256185355,"Approved","OW496"
"2023-04-22 01:00",23.2730757499646,"Approved","OW496"
"2023-04-22 02:00",23.2685953145742,"Approved","OW496"
"2023-04-22 03:00",23.2623148791838,"Approved","OW496"
"2023-04-22 04:00",23.2581344437935,"Approved","OW496"
"2023-04-22 05:00",23.2563540084031,"Approved","OW496"
"2023-04-22 06:00",23.2523735730127,"Approved","OW496"
"2023-04-22 07:00",23.2507931376223,"Approved","OW496"
"2023-04-22 08:00",23.2487127022319,"Approved","OW496"
"2023-04-22 09:00",23.2464322668416,"Approved","OW496"
"2023-04-22 10:00",23.2460518314512,"Approved","OW496"
"2023-04-22 11:00",23.2504713960608,"Approved","OW496"
"2023-04-22 12:00",23.2448909606704,"Approved","OW496"
"2023-04-22 13:00",23.23941052528,"Approved","OW496"
"2023-04-22 14:00",23.2359300898897,"Approved","OW496"
"2023-04-22 15:00",23.2299496544993,"Approved","OW496"
"2023-04-22 16:00",23.2265692191089,"Approved","OW496"
"2023-04-22 17:00",23.2235887837185,"Approved","OW496"
"2023-04-22 18:00",23.2184083483281,"Approved","OW496"
"2023-04-22 19:00",23.2154279129378,"Approved","OW496"
"2023-04-22 20:00",23.2113474775474,"Approved","OW496"
"2023-04-22 21:00",23.208367042157,"Approved","OW496"
"2023-04-22 22:00",23.2060866067666,"Approved","OW496"
"2023-04-22 23:00",23.2040061713762,"Approved","OW496"
"2023-04-23 00:00",23.2028257359859,"Approved","OW496"
"2023-04-23 01:00",23.2020453005955,"Approved","OW496"
"2023-04-23 02:00",23.2021648652051,"Approved","OW496"
"2023-04-23 03:00",23.2017844298147,"Approved","OW496"
"2023-04-23 04:00",23.2021039944244,"Approved","OW496"
"2023-04-23 05:00",23.204223559034,"Approved","OW496"
"2023-04-23 06:00",23.2060431236436,"Approved","OW496"
"2023-04-23 07:00",23.2085626882532,"Approved","OW496"
"2023-04-23 08:00",23.2129822528628,"Approved","OW496"
"2023-04-23 09:00",23.2206018174725,"Approved","OW496"
"2023-04-23 10:00",23.2268213820821,"Approved","OW496"
"2023-04-23 11:00",23.2310409466917,"Approved","OW496"
"2023-04-23 12:00",23.2295605113013,"Approved","OW496"
"2023-04-23 13:00",23.2259800759109,"Approved","OW496"
"2023-04-23 14:00",23.2256996405206,"Approved","OW496"
"2023-04-23 15:00",23.2250192051302,"Approved","OW496"
"2023-04-23 16:00",23.2210387697398,"Approved","OW496"
"2023-04-23 17:00",23.2201583343494,"Approved","OW496"
"2023-04-23 18:00",23.216777898959,"Approved","OW496"
"2023-04-23 19:00",23.2194974635687,"Approved","OW496"
"2023-04-23 20:00",23.2210170281783,"Approved","OW496"
"2023-04-23 21:00",23.2268365927879,"Approved","OW496"
"2023-04-23 22:00",23.2301561573975,"Approved","OW496"
"2023-04-23 23:00",23.2326757220071,"Approved","OW496"
"2023-04-24 00:00",23.2347952866168,"Approved","OW496"
"2023-04-24 01:00",23.2363148512264,"Approved","OW496"
"2023-04-24 02:00",23.239334415836,"Approved","OW496"
"2023-04-24 03:00",23.2414539804456,"Approved","OW496"
"2023-04-24 04:00",23.2424735450552,"Approved","OW496"
"2023-04-24 05:00",23.2464931096649,"Approved","OW496"
"2023-04-24 06:00",23.2484126742745,"Approved","OW496"
"2023-04-24 07:00",23.2515322388841,"Approved","OW496"
"2023-04-24 08:00",23.2540518034937,"Approved","OW496"
"2023-04-24 09:00",23.2575713681033,"Approved","OW496"
"2023-04-24 10:00",23.258590932713,"Approved","OW496"
"2023-04-24 11:00",23.2597104973226,"Approved","OW496"
"2023-04-24 12:00",23.2612300619322,"Approved","OW496"
"2023-04-24 13:00",23.2623496265418,"Approved","OW496"
"2023-04-24 14:00",23.2603691911514,"Approved","OW496"
"2023-04-24 15:00",23.2600887557611,"Approved","OW496"
"2023-04-24 16:00",23.2560083203707,"Approved","OW496"
"2023-04-24 17:00",23.2492278849803,"Approved","OW496"
"2023-04-24 18:00",23.2425474495899,"Approved","OW496"
"2023-04-24 19:00",23.2372670141995,"Approved","OW496"
"2023-04-24 20:00",23.2326865788092,"Approved","OW496"
"2023-04-24 21:00",23.2281061434188,"Approved","OW496"
"2023-04-24 22:00",23.2231257080284,"Approved","OW496"
"2023-04-24 23:00",23.219245272638,"Approved","OW496"
"2023-04-25 00:00",23.2159648372476,"Approved","OW496"
"2023-04-25 01:00",23.2150844018573,"Approved","OW496"
"2023-04-25 02:00",23.2099039664669,"Approved","OW496"
"2023-04-25 03:00",23.2064235310765,"Approved","OW496"
"2023-04-25 04:00",23.2066430956861,"Approved","OW496"
"2023-04-25 05:00",23.2072626602957,"Approved","OW496"
"2023-04-25 06:00",23.2059822249054,"Approved","OW496"
"2023-04-25 07:00",23.206301789515,"Approved","OW496"
"2023-04-25 08:00",23.2084213541246,"Approved","OW496"
"2023-04-25 09:00",23.2152409187342,"Approved","OW496"
"2023-04-25 10:00",23.2219604833438,"Approved","OW496"
"2023-04-25 11:00",23.2283800479535,"Approved","OW496"
"2023-04-25 12:00",23.2300996125631,"Approved","OW496"
"2023-04-25 13:00",23.2325191771727,"Approved","OW496"
"2023-04-25 14:00",23.2322387417823,"Approved","OW496"
"2023-04-25 15:00",23.2344583063919,"Approved","OW496"
"2023-04-25 16:00",23.2353778710016,"Approved","OW496"
"2023-04-25 17:00",23.2395974356112,"Approved","OW496"
"2023-04-25 18:00",23.2420170002208,"Approved","OW496"
"2023-04-25 19:00",23.2438365648304,"Approved","OW496"
"2023-04-25 20:00",23.24685612944,"Approved","OW496"
"2023-04-25 21:00",23.2462756940497,"Approved","OW496"
"2023-04-25 22:00",23.2457952586593,"Approved","OW496"
"2023-04-25 23:00",23.2451148232689,"Approved","OW496"
"2023-04-26 00:00",23.2438343878785,"Approved","OW496"
"2023-04-26 01:00",23.2428539524881,"Approved","OW496"
"2023-04-26 02:00",23.2403735170978,"Approved","OW496"
"2023-04-26 03:00",23.2389930817074,"Approved","OW496"
"2023-04-26 04:00",23.237212646317,"Approved","OW496"
"2023-04-26 05:00",23.2334322109266,"Approved","OW496"
"2023-04-26 06:00",23.2310517755363,"Approved","OW496"
"2023-04-26 07:00",23.2267713401459,"Approved","OW496"
"2023-04-26 08:00",23.2233909047555,"Approved","OW496"
"2023-04-26 09:00",23.2232104693651,"Approved","OW496"
"2023-04-26 10:00",23.2183300339747,"Approved","OW496"
"2023-04-26 11:00",23.2170495985844,"Approved","OW496"
"2023-04-26 12:00",23.214269163194,"Approved","OW496"
"2023-04-26 13:00",23.2098887278036,"Approved","OW496"
"2023-04-26 14:00",23.2091082924132,"Approved","OW496"
"2023-04-26 15:00",23.2078278570228,"Approved","OW496"
"2023-04-26 16:00",23.2115474216325,"Approved","OW496"
"2023-04-26 17:00",23.2128669862421,"Approved","OW496"
"2023-04-26 18:00",23.2136865508517,"Approved","OW496"
"2023-04-26 19:00",23.2162061154613,"Approved","OW496"
"2023-04-26 20:00",23.2187256800709,"Approved","OW496"
"2023-04-26 21:00",23.2208452446806,"Approved","OW496"
"2023-04-26 22:00",23.2231648092902,"Approved","OW496"
"2023-04-26 23:00",23.2254843738998,"Approved","OW496"
"2023-04-27 00:00",23.2294039385094,"Approved","OW496"
"2023-04-27 01:00",23.227423503119,"Approved","OW496"
"2023-04-27 02:00",23.2302430677287,"Approved","OW496"
"2023-04-27 03:00",23.2332626323383,"Approved","OW496"
"2023-04-27 04:00",23.2342821969479,"Approved","OW496"
"2023-04-27 05:00",23.2370017615575,"Approved","OW496"
"2023-04-27 06:00",23.2408213261671,"Approved","OW496"
"2023-04-27 07:00",23.2487408907768,"Approved","OW496"
"2023-04-27 08:00",23.2518604553864,"Approved","OW496"
"2023-04-27 09:00",23.250680019996,"Approved","OW496"
"2023-04-27 10:00",23.2531995846056,"Approved","OW496"
"2023-04-27 11:00",23.2580191492152,"Approved","OW496"
"2023-04-27 12:00",23.2560387138249,"Approved","OW496"
"2023-04-27 13:00",23.2524582784345,"Approved","OW496"
"2023-04-27 14:00",23.2473778430441,"Approved","OW496"
"2023-04-27 15:00",23.2473974076537,"Approved","OW496"
"2023-04-27 16:00",23.2433169722633,"Approved","OW496"
"2023-04-27 17:00",23.241836536873,"Approved","OW496"
"2023-04-27 18:00",23.2427561014826,"Approved","OW496"
"2023-04-27 19:00",23.2461756660922,"Approved","OW496"
"2023-04-27 20:00",23.2491952307018,"Approved","OW496"
"2023-04-27 21:00",23.2496147953114,"Approved","OW496"
"2023-04-27 22:00",23.2488343599211,"Approved","OW496"
"2023-04-27 23:00",23.2509539245307,"Approved","OW496"
"2023-04-28 00:00",23.2537734891403,"Approved","OW496"
"2023-04-28 01:00",23.2551930537499,"Approved","OW496"
"2023-04-28 02:00",23.2570126183595,"Approved","OW496"
"2023-04-28 03:00",23.2579321829692,"Approved","OW496"
"2023-04-28 04:00",23.2631517475788,"Approved","OW496"
"2023-04-28 05:00",23.2686713121884,"Approved","OW496"
"2023-04-28 06:00",23.273690876798,"Approved","OW496"
"2023-04-28 07:00",23.2786104414076,"Approved","OW496"
"2023-04-28 08:00",23.2841300060173,"Approved","OW496"
"2023-04-28 09:00",23.2860495706269,"Approved","OW496"
"2023-04-28 10:00",23.2937691352365,"Approved","OW496"
"2023-04-28 11:00",23.2948886998461,"Approved","OW496"
"2023-04-28 12:00",23.2967082644557,"Approved","OW496"
"2023-04-28 13:00",23.2934278290654,"Approved","OW496"
"2023-04-28 14:00",23.292447393675,"Approved","OW496"
"2023-04-28 15:00",23.2892669582846,"Approved","OW496"
"2023-04-28 16:00",23.2891865228942,"Approved","OW496"
"2023-04-28 17:00",23.2888060875038,"Approved","OW496"
"2023-04-28 18:00",23.2867256521135,"Approved","OW496"
"2023-04-28 19:00",23.2853452167231,"Approved","OW496"
"2023-04-28 20:00",23.2839647813327,"Approved","OW496"
"2023-04-28 21:00",23.2841843459423,"Approved","OW496"
"2023-04-28 22:00",23.2845039105519,"Approved","OW496"
"2023-04-28 23:00",23.2842234751616,"Approved","OW496"
"2023-04-29 00:00",23.2838430397712,"Approved","OW496"
"2023-04-29 01:00",23.2824626043808,"Approved","OW496"
"2023-04-29 02:00",23.2802821689904,"Approved","OW496"
"2023-04-29 03:00",23.2800017336,"Approved","OW496"
"2023-04-29 04:00",23.2771212982097,"Approved","OW496"
"2023-04-29 05:00",23.2747408628193,"Approved","OW496"
"2023-04-29 06:00",23.2731604274289,"Approved","OW496"
"2023-04-29 07:00",23.2733799920385,"Approved","OW496"
"2023-04-29 08:00",23.2727995566481,"Approved","OW496"
"2023-04-29 09:00",23.2718191212578,"Approved","OW496"
"2023-04-29 10:00",23.2726386858674,"Approved","OW496"
"2023-04-29 11:00",23.267858250477,"Approved","OW496"
"2023-04-29 12:00",23.2623778150866,"Approved","OW496"
"2023-04-29 13:00",23.2558973796963,"Approved","OW496"
"2023-04-29 14:00",23.2515169443059,"Approved","OW496"
"2023-04-29 15:00",23.2438365089155,"Approved","OW496"
"2023-04-29 16:00",23.2392560735251,"Approved","OW496"
"2023-04-29 17:00",23.2316756381347,"Approved","OW496"
"2023-04-29 18:00",23.2262952027443,"Approved","OW496"
"2023-04-29 19:00",23.222314767354,"Approved","OW496"
"2023-04-29 20:00",23.2182343319636,"Approved","OW496"
"2023-04-29 21:00",23.2167538965732,"Approved","OW496"
"2023-04-29 22:00",23.2149734611828,"Approved","OW496"
"2023-04-29 23:00",23.2131930257925,"Approved","OW496"
"2023-04-30 00:00",23.2098125904021,"Approved","OW496"
"2023-04-30 01:00",23.2080321550117,"Approved","OW496"
"2023-04-30 02:00",23.2055517196213,"Approved","OW496"
"2023-04-30 03:00",23.2061712842309,"Approved","OW496"
"2023-04-30 04:00",23.2057908488406,"Approved","OW496"
"2023-04-30 05:00",23.2056104134502,"Approved","OW496"
"2023-04-30 06:00",23.2069299780598,"Approved","OW496"
"2023-04-30 07:00",23.2096495426694,"Approved","OW496"
"2023-04-30 08:00",23.210169107279,"Approved","OW496"
"2023-04-30 09:00",23.2086886718887,"Approved","OW496"
"2023-04-30 10:00",23.2090082364983,"Approved","OW496"
"2023-04-30 11:00",23.2073278011079,"Approved","OW496"
"2023-04-30 12:00",23.2035473657175,"Approved","OW496"
"2023-04-30 13:00",23.2015669303271,"Approved","OW496"
"2023-04-30 14:00",23.2009864949368,"Approved","OW496"
"2023-04-30 15:00",23.2012060595464,"Approved","OW496"
"2023-04-30 16:00",23.200825624156,"Approved","OW496"
"2023-04-30 17:00",23.1978451887656,"Approved","OW496"
"2023-04-30 18:00",23.1963647533752,"Approved","OW496"
"2023-04-30 19:00",23.1972843179849,"Approved","OW496"
"2023-04-30 20:00",23.1981038825945,"Approved","OW496"
"2023-04-30 21:00",23.1950234472041,"Approved","OW496"
"2023-04-30 22:00",23.1975430118137,"Approved","OW496"
"2023-04-30 23:00",23.1962625764233,"Approved","OW496"
"2023-05-01 00:00",23.196682141033,"Approved","OW496"
"2023-05-01 01:00",23.1949017056426,"Approved","OW496"
"2023-05-01 02:00",23.1950212702522,"Approved","OW496"
"2023-05-01 03:00",23.1996408348618,"Approved","OW496"
"2023-05-01 04:00",23.1989603994714,"Approved","OW496"
"2023-05-01 05:00",23.2023799640811,"Approved","OW496"
"2023-05-01 06:00",23.2031995286907,"Approved","OW496"
"2023-05-01 07:00",23.2064190933003,"Approved","OW496"
"2023-05-01 08:00",23.2084386579099,"Approved","OW496"
"2023-05-01 09:00",23.2094582225195,"Approved","OW496"
"2023-05-01 10:00",23.2109777871292,"Approved","OW496"
"2023-05-01 11:00",23.2122973517388,"Approved","OW496"
"2023-05-01 12:00",23.2104169163484,"Approved","OW496"
"2023-05-01 13:00",23.208536480958,"Approved","OW496"
"2023-05-01 14:00",23.21,"Approved","OW496"
"2023-05-05 01:00",23.2172,"Approved","OW496"
"2023-05-05 02:00",23.2129,"Approved","OW496"
"2023-05-05 03:00",23.21,"Approved","OW496"
"2023-05-05 04:00",23.2056,"Approved","OW496"
"2023-05-05 05:00",23.2059,"Approved","OW496"
"2023-05-05 06:00",23.2017,"Approved","OW496"
"2023-05-05 07:00",23.1915,"Approved","OW496"
"2023-05-05 08:00",23.1862,"Approved","OW496"
"2023-05-05 09:00",23.1829,"Approved","OW496"
"2023-05-05 10:00",23.1779,"Approved","OW496"
"2023-05-05 11:00",23.1738,"Approved","OW496"
"2023-05-05 12:00",23.1734,"Approved","OW496"
"2023-05-05 13:00",23.1757,"Approved","OW496"
"2023-05-05 14:00",23.1766,"Approved","OW496"
"2023-05-05 15:00",23.1762,"Approved","OW496"
"2023-05-05 16:00",23.1774,"Approved","OW496"
"2023-05-05 17:00",23.1754,"Approved","OW496"
"2023-05-05 18:00",23.1753,"Approved","OW496"
"2023-05-05 19:00",23.1742,"Approved","OW496"
"2023-05-05 20:00",23.1725,"Approved","OW496"
"2023-05-05 21:00",23.1716,"Approved","OW496"
"2023-05-05 22:00",23.1713,"Approved","OW496"
"2023-05-05 23:00",23.1727,"Approved","OW496"
"2023-05-06 00:00",23.1737,"Approved","OW496"
"2023-05-06 01:00",23.1755,"Approved","OW496"
"2023-05-06 02:00",23.1794,"Approved","OW496"
"2023-05-06 03:00",23.1827,"Approved","OW496"
"2023-05-06 04:00",23.1849,"Approved","OW496"
"2023-05-06 05:00",23.1881,"Approved","OW496"
"2023-05-06 06:00",23.1838,"Approved","OW496"
"2023-05-06 07:00",23.1802,"Approved","OW496"
"2023-05-06 08:00",23.1768,"Approved","OW496"
"2023-05-06 09:00",23.1707,"Approved","OW496"
"2023-05-06 10:00",23.1659,"Approved","OW496"
"2023-05-06 11:00",23.1632,"Approved","OW496"
"2023-05-06 12:00",23.1656,"Approved","OW496"
"2023-05-06 13:00",23.1675,"Approved","OW496"
"2023-05-06 14:00",23.1699,"Approved","OW496"
"2023-05-06 15:00",23.1717,"Approved","OW496"
"2023-05-06 16:00",23.1724,"Approved","OW496"
"2023-05-06 17:00",23.171,"Approved","OW496"
"2023-05-06 18:00",23.171,"Approved","OW496"
"2023-05-06 19:00",23.1693,"Approved","OW496"
"2023-05-06 20:00",23.1686,"Approved","OW496"
"2023-05-06 21:00",23.1665,"Approved","OW496"
"2023-05-06 22:00",23.1664,"Approved","OW496"
"2023-05-06 23:00",23.1689,"Approved","OW496"
"2023-05-07 00:00",23.1712,"Approved","OW496"
"2023-05-07 01:00",23.1755,"Approved","OW496"
"2023-05-07 02:00",23.1789,"Approved","OW496"
"2023-05-07 03:00",23.1812,"Approved","OW496"
"2023-05-07 04:00",23.1796,"Approved","OW496"
"2023-05-07 05:00",23.1775,"Approved","OW496"
"2023-05-07 06:00",23.1752,"Approved","OW496"
"2023-05-07 07:00",23.175,"Approved","OW496"
"2023-05-07 08:00",23.1735,"Approved","OW496"
"2023-05-07 09:00",23.1723,"Approved","OW496"
"2023-05-07 10:00",23.17,"Approved","OW496"
"2023-05-07 11:00",23.1672,"Approved","OW496"
"2023-05-07 12:00",23.1662,"Approved","OW496"
"2023-05-07 13:00",23.1651,"Approved","OW496"
"2023-05-07 14:00",23.1652,"Approved","OW496"
"2023-05-07 15:00",23.1633,"Approved","OW496"
"2023-05-07 16:00",23.1627,"Approved","OW496"
"2023-05-07 17:00",23.1611,"Approved","OW496"
"2023-05-07 18:00",23.16,"Approved","OW496"
"2023-05-07 19:00",23.16,"Approved","OW496"
"2023-05-07 20:00",23.1579,"Approved","OW496"
"2023-05-07 21:00",23.1591,"Approved","OW496"
"2023-05-07 22:00",23.158,"Approved","OW496"
"2023-05-07 23:00",23.1622,"Approved","OW496"
"2023-05-08 00:00",23.1693,"Approved","OW496"
"2023-05-08 01:00",23.176,"Approved","OW496"
"2023-05-08 02:00",23.1815,"Approved","OW496"
"2023-05-08 03:00",23.1833,"Approved","OW496"
"2023-05-08 04:00",23.185,"Approved","OW496"
"2023-05-08 05:00",23.185,"Approved","OW496"
"2023-05-08 06:00",23.1865,"Approved","OW496"
"2023-05-08 07:00",23.1841,"Approved","OW496"
"2023-05-08 08:00",23.1836,"Approved","OW496"
"2023-05-08 09:00",23.185,"Approved","OW496"
"2023-05-08 10:00",23.184,"Approved","OW496"
"2023-05-08 11:00",23.1843,"Approved","OW496"
"2023-05-08 12:00",23.1856,"Approved","OW496"
"2023-05-08 13:00",23.1865,"Approved","OW496"
"2023-05-08 14:00",23.187,"Approved","OW496"
"2023-05-08 15:00",23.1862,"Approved","OW496"
"2023-05-08 16:00",23.1839,"Approved","OW496"
"2023-05-08 17:00",23.1839,"Approved","OW496"
"2023-05-08 18:00",23.1832,"Approved","OW496"
"2023-05-08 19:00",23.1847,"Approved","OW496"
"2023-05-08 20:00",23.1871,"Approved","OW496"
"2023-05-08 21:00",23.1917,"Approved","OW496"
"2023-05-08 22:00",23.1909,"Approved","OW496"
"2023-05-08 23:00",23.1924,"Approved","OW496"
"2023-05-09 00:00",23.198,"Approved","OW496"
"2023-05-09 01:00",23.2042,"Approved","OW496"
"2023-05-09 02:00",23.2092,"Approved","OW496"
"2023-05-09 03:00",23.211,"Approved","OW496"
"2023-05-09 04:00",23.2112,"Approved","OW496"
"2023-05-09 05:00",23.2097,"Approved","OW496"
"2023-05-09 06:00",23.2053,"Approved","OW496"
"2023-05-09 07:00",23.2028,"Approved","OW496"
"2023-05-09 08:00",23.1998,"Approved","OW496"
"2023-05-09 09:00",23.1968,"Approved","OW496"
"2023-05-09 10:00",23.1937,"Approved","OW496"
"2023-05-09 11:00",23.1912,"Approved","OW496"
"2023-05-09 12:00",23.1914,"Approved","OW496"
"2023-05-09 13:00",23.1945,"Approved","OW496"
"2023-05-09 14:00",23.1974,"Approved","OW496"
"2023-05-09 15:00",23.1965,"Approved","OW496"
"2023-05-09 16:00",23.1935,"Approved","OW496"
"2023-05-09 17:00",23.1929,"Approved","OW496"
"2023-05-09 18:00",23.1913,"Approved","OW496"
"2023-05-09 19:00",23.1924,"Approved","OW496"
"2023-05-09 20:00",23.1912,"Approved","OW496"
"2023-05-09 21:00",23.1919,"Approved","OW496"
"2023-05-09 22:00",23.1918,"Approved","OW496"
"2023-05-09 23:00",23.1937,"Approved","OW496"
"2023-05-10 00:00",23.1979,"Approved","OW496"
"2023-05-10 01:00",23.202,"Approved","OW496"
"2023-05-10 02:00",23.205,"Approved","OW496"
"2023-05-10 03:00",23.2058,"Approved","OW496"
"2023-05-10 04:00",23.2042,"Approved","OW496"
"2023-05-10 05:00",23.2025,"Approved","OW496"
"2023-05-10 06:00",23.1979,"Approved","OW496"
"2023-05-10 07:00",23.1931,"Approved","OW496"
"2023-05-10 08:00",23.1891,"Approved","OW496"
"2023-05-10 09:00",23.1844,"Approved","OW496"
"2023-05-10 10:00",23.1815,"Approved","OW496"
"2023-05-10 11:00",23.1776,"Approved","OW496"
"2023-05-10 12:00",23.1769,"Approved","OW496"
"2023-05-10 13:00",23.1793,"Approved","OW496"
"2023-05-10 14:00",23.181,"Approved","OW496"
"2023-05-10 15:00",23.1801,"Approved","OW496"
"2023-05-10 16:00",23.1783,"Approved","OW496"
"2023-05-10 17:00",23.1768,"Approved","OW496"
"2023-05-10 18:00",23.1756,"Approved","OW496"
"2023-05-10 19:00",23.1734,"Approved","OW496"
"2023-05-10 20:00",23.172,"Approved","OW496"
"2023-05-10 21:00",23.1719,"Approved","OW496"
"2023-05-10 22:00",23.1724,"Approved","OW496"
"2023-05-10 23:00",23.1732,"Approved","OW496"
"2023-05-11 00:00",23.1778,"Approved","OW496"
"2023-05-11 01:00",23.1844,"Approved","OW496"
"2023-05-11 02:00",23.187,"Approved","OW496"
"2023-05-11 03:00",23.1885,"Approved","OW496"
"2023-05-11 04:00",23.1879,"Approved","OW496"
"2023-05-11 05:00",23.1869,"Approved","OW496"
"2023-05-11 06:00",23.183,"Approved","OW496"
"2023-05-11 07:00",23.1816,"Approved","OW496"
"2023-05-11 08:00",23.1799,"Approved","OW496"
"2023-05-11 09:00",23.187,"Approved","OW496"
"2023-05-11 10:00",23.1857,"Approved","OW496"
"2023-05-11 11:00",23.1795,"Approved","OW496"
"2023-05-11 12:00",23.1794,"Approved","OW496"
"2023-05-11 13:00",23.1854,"Approved","OW496"
"2023-05-11 14:00",23.1867,"Approved","OW496"
"2023-05-11 15:00",23.1888,"Approved","OW496"
"2023-05-11 16:00",23.1862,"Approved","OW496"
"2023-05-11 17:00",23.1858,"Approved","OW496"
"2023-05-11 18:00",23.1831,"Approved","OW496"
"2023-05-11 19:00",23.1837,"Approved","OW496"
"2023-05-11 20:00",23.1842,"Approved","OW496"
"2023-05-11 21:00",23.1843,"Approved","OW496"
"2023-05-11 22:00",23.1869,"Approved","OW496"
"2023-05-11 23:00",23.1904,"Approved","OW496"
"2023-05-12 00:00",23.1962,"Approved","OW496"
"2023-05-12 01:00",23.2005,"Approved","OW496"
"2023-05-12 02:00",23.2048,"Approved","OW496"
"2023-05-12 03:00",23.2063,"Approved","OW496"
"2023-05-12 04:00",23.2059,"Approved","OW496"
"2023-05-12 05:00",23.2053,"Approved","OW496"
"2023-05-12 06:00",23.1992,"Approved","OW496"
"2023-05-12 07:00",23.1981,"Approved","OW496"
"2023-05-12 08:00",23.1976,"Approved","OW496"
"2023-05-12 09:00",23.197,"Approved","OW496"
"2023-05-12 10:00",23.1957,"Approved","OW496"